When you browse on this site, cookies collect data to enhance your experience and personalize the content and advertising you see.
Visit our Privacy Policy to learn more. By continuing to use the site, you agree to this use of cookies and data.
EN

Hourly Weather Folkern

Today, 5 July, Sunday

Time Temperature Precipitation Wind Pressure Humidity
00:00 +10°C° 0 mm 4 mps 743 mmHg 95%
01:00 +9°C° 0.3 mm 5 mps 744 mmHg 94%
02:00 +8°C° 0.3 mm 6 mps 744 mmHg 94%
03:00 +8°C° 0.3 mm 7 mps 745 mmHg 93%
04:00 +9°C° 0.4 mm 7 mps 745 mmHg 92%
05:00 +9°C° 0.4 mm 8 mps 745 mmHg 90%
06:00 +9°C° 0.4 mm 8 mps 745 mmHg 88%
07:00 +10°C° 0.3 mm 8 mps 745 mmHg 87%
08:00 +10°C° 0.3 mm 8 mps 745 mmHg 85%
09:00 +11°C° 0.3 mm 8 mps 745 mmHg 84%
10:00 +11°C° 0.4 mm 8 mps 745 mmHg 84%
11:00 +11°C° 0.4 mm 8 mps 745 mmHg 84%
12:00 +11°C° 0.4 mm 8 mps 745 mmHg 84%
13:00 +12°C° 0.3 mm 7 mps 746 mmHg 83%
14:00 +12°C° 0.3 mm 7 mps 746 mmHg 81%
15:00 +12°C° 0.3 mm 7 mps 746 mmHg 80%
16:00 +12°C° 0.1 mm 8 mps 747 mmHg 80%
17:00 +11°C° 0.1 mm 8 mps 747 mmHg 81%
18:00 +11°C° 0.1 mm 9 mps 748 mmHg 81%
19:00 +10°C° 0.2 mm 9 mps 749 mmHg 85%
20:00 +10°C° 0.2 mm 9 mps 750 mmHg 89%
21:00 +10°C° 0.2 mm 9 mps 751 mmHg 93%
22:00 +9°C° 0 mm 10 mps 752 mmHg 91%
23:00 +8°C° 0 mm 10 mps 753 mmHg 89%

Tomorrow, 6 July, Monday

Time Temperature Precipitation Wind Pressure Humidity
00:00 +8°C° 0 mm 11 mps 754 mmHg 86%
01:00 +8°C° 0.1 mm 11 mps 755 mmHg 86%
02:00 +8°C° 0.1 mm 12 mps 757 mmHg 86%
03:00 +8°C° 0.1 mm 12 mps 758 mmHg 86%
04:00 +8°C° 0.1 mm 11 mps 759 mmHg 84%
05:00 +8°C° 0.1 mm 10 mps 759 mmHg 82%
06:00 +8°C° 0.1 mm 9 mps 760 mmHg 80%
07:00 +9°C° 0 mm 8 mps 761 mmHg 77%
08:00 +10°C° 0 mm 8 mps 762 mmHg 73%
09:00 +11°C° 0 mm 7 mps 762 mmHg 70%
10:00 +11°C° 0 mm 7 mps 763 mmHg 68%
11:00 +11°C° 0 mm 7 mps 763 mmHg 66%
12:00 +12°C° 0 mm 7 mps 763 mmHg 64%
13:00 +12°C° 0 mm 7 mps 763 mmHg 65%
14:00 +12°C° 0 mm 7 mps 763 mmHg 66%
15:00 +12°C° 0 mm 8 mps 763 mmHg 67%
16:00 +11°C° 0.1 mm 8 mps 763 mmHg 73%
17:00 +11°C° 0.1 mm 8 mps 763 mmHg 79%
18:00 +11°C° 0.1 mm 9 mps 763 mmHg 85%
19:00 +10°C° 0.1 mm 8 mps 763 mmHg 85%
20:00 +10°C° 0.1 mm 8 mps 763 mmHg 85%
21:00 +10°C° 0.1 mm 7 mps 763 mmHg 85%
22:00 +10°C° 0.1 mm 7 mps 762 mmHg 87%
23:00 +10°C° 0.1 mm 7 mps 762 mmHg 88%

Day after tomorrow, 7 July, Tuesday

Time Temperature Precipitation Wind Pressure Humidity
00:00 +10°C° 0.1 mm 6 mps 761 mmHg 90%
01:00 +10°C° 0.2 mm 6 mps 761 mmHg 90%
02:00 +9°C° 0.2 mm 6 mps 761 mmHg 90%
03:00 +9°C° 0.2 mm 5 mps 760 mmHg 90%
04:00 +9°C° 0.6 mm 5 mps 760 mmHg 91%
05:00 +10°C° 0.6 mm 4 mps 759 mmHg 92%
06:00 +10°C° 0.6 mm 3 mps 758 mmHg 94%
07:00 +10°C° 0.5 mm 3 mps 758 mmHg 93%
08:00 +10°C° 0.5 mm 2 mps 758 mmHg 93%
09:00 +11°C° 0.5 mm 1 mps 758 mmHg 92%
10:00 +10°C° 0.1 mm 2 mps 758 mmHg 91%
11:00 +12°C° 0.1 mm 2 mps 758 mmHg 89%
12:00 +12°C° 0.1 mm 2 mps 758 mmHg 88%
13:00 +11°C° 0 mm 3 mps 758 mmHg 84%
14:00 +12°C° 0 mm 4 mps 759 mmHg 80%
15:00 +13°C° 0 mm 4 mps 759 mmHg 76%
16:00 +12°C° 0 mm 5 mps 759 mmHg 76%
17:00 +11°C° 0 mm 6 mps 760 mmHg 76%
18:00 +11°C° 0 mm 6 mps 760 mmHg 76%
19:00 +10°C° 0 mm 6 mps 760 mmHg 79%
20:00 +9°C° 0 mm 6 mps 761 mmHg 82%
21:00 +9°C° 0 mm 5 mps 761 mmHg 84%
22:00 +8°C° 0 mm 4 mps 762 mmHg 85%
23:00 +8°C° 0 mm 4 mps 762 mmHg 85%

8 July, Wednesday

Time Temperature Precipitation Wind Pressure Humidity
00:00 +9°C° 0 mm 3 mps 762 mmHg 85%
01:00 +8°C° 0 mm 3 mps 763 mmHg 86%
02:00 +8°C° 0 mm 2 mps 763 mmHg 87%
03:00 +8°C° 0 mm 2 mps 763 mmHg 88%
04:00 +10°C° 0 mm 1 mps 763 mmHg 86%
05:00 +11°C° 0 mm 1 mps 763 mmHg 84%
06:00 +11°C° 0 mm 1 mps 763 mmHg 81%
07:00 +12°C° 0 mm 1 mps 763 mmHg 75%
08:00 +13°C° 0 mm 1 mps 763 mmHg 69%
09:00 +14°C° 0 mm 2 mps 764 mmHg 63%
10:00 +14°C° 0 mm 2 mps 764 mmHg 64%
11:00 +13°C° 0 mm 3 mps 764 mmHg 64%
12:00 +13°C° 0 mm 3 mps 764 mmHg 65%
13:00 +13°C° 0 mm 3 mps 763 mmHg 64%
14:00 +14°C° 0 mm 4 mps 763 mmHg 63%
15:00 +14°C° 0 mm 4 mps 763 mmHg 62%
16:00 +14°C° 0 mm 4 mps 762 mmHg 65%
17:00 +13°C° 0 mm 5 mps 761 mmHg 67%
18:00 +13°C° 0 mm 5 mps 761 mmHg 70%
19:00 +11°C° 1.1 mm 7 mps 760 mmHg 76%
20:00 +10°C° 1.1 mm 8 mps 759 mmHg 82%
21:00 +8°C° 1.1 mm 10 mps 759 mmHg 88%
22:00 +8°C° 2.2 mm 11 mps 758 mmHg 89%
23:00 +8°C° 2.2 mm 11 mps 756 mmHg 91%

9 July, Thursday

Time Temperature Precipitation Wind Pressure Humidity
00:00 +8°C° 2.2 mm 12 mps 755 mmHg 92%
01:00 +8°C° 2.9 mm 12 mps 754 mmHg 93%
02:00 +8°C° 2.9 mm 12 mps 753 mmHg 94%
03:00 +8°C° 2.9 mm 12 mps 752 mmHg 95%
04:00 +9°C° 2 mm 11 mps 752 mmHg 96%
05:00 +10°C° 2 mm 9 mps 751 mmHg 96%
06:00 +10°C° 2 mm 8 mps 751 mmHg 97%
07:00 +11°C° 1.1 mm 8 mps 750 mmHg 97%
08:00 +12°C° 1.1 mm 7 mps 750 mmHg 97%
09:00 +13°C° 1.1 mm 6 mps 750 mmHg 97%
10:00 +13°C° 0.4 mm 6 mps 750 mmHg 97%
11:00 +13°C° 0.4 mm 6 mps 749 mmHg 97%
12:00 +13°C° 0.4 mm 5 mps 749 mmHg 97%
13:00 +13°C° 0.9 mm 5 mps 749 mmHg 97%
14:00 +13°C° 0.9 mm 6 mps 749 mmHg 97%
15:00 +13°C° 0.9 mm 6 mps 749 mmHg 97%
16:00 +12°C° 1.5 mm 11 mps 750 mmHg 98%
17:00 +11°C° 1.5 mm 16 mps 750 mmHg 98%
18:00 +11°C° 1.5 mm 21 mps 750 mmHg 98%
19:00 +10°C° 1.8 mm 21 mps 751 mmHg 96%
20:00 +10°C° 1.8 mm 21 mps 752 mmHg 94%
21:00 +8°C° 1.8 mm 21 mps 752 mmHg 92%
22:00 +8°C° 2 mm 20 mps 753 mmHg 91%
23:00 +7°C° 2 mm 19 mps 754 mmHg 91%

10 July, Friday

Time Temperature Precipitation Wind Pressure Humidity
00:00 +6°C° 2 mm 17 mps 754 mmHg 90%
01:00 +6°C° 1 mm 16 mps 755 mmHg 89%
02:00 +7°C° 1 mm 16 mps 756 mmHg 89%
03:00 +8°C° 1 mm 15 mps 756 mmHg 88%
04:00 +8°C° 0.3 mm 14 mps 757 mmHg 88%
05:00 +8°C° 0.3 mm 14 mps 758 mmHg 88%
06:00 +8°C° 0.3 mm 13 mps 758 mmHg 88%
07:00 +9°C° 0.1 mm 13 mps 759 mmHg 86%
08:00 +9°C° 0.1 mm 12 mps 760 mmHg 84%
09:00 +11°C° 0.1 mm 11 mps 760 mmHg 82%
10:00 +11°C° 0 mm 11 mps 761 mmHg 79%
11:00 +11°C° 0 mm 11 mps 761 mmHg 76%
12:00 +12°C° 0 mm 10 mps 762 mmHg 72%
13:00 +12°C° 0 mm 10 mps 762 mmHg 72%
14:00 +12°C° 0 mm 10 mps 762 mmHg 72%
15:00 +12°C° 0 mm 10 mps 763 mmHg 72%
16:00 +12°C° 0 mm 9 mps 763 mmHg 74%
17:00 +12°C° 0 mm 9 mps 763 mmHg 76%
18:00 +11°C° 0 mm 9 mps 764 mmHg 78%
19:00 +11°C° 0 mm 8 mps 764 mmHg 80%
20:00 +10°C° 0 mm 8 mps 765 mmHg 82%
21:00 +10°C° 0 mm 8 mps 765 mmHg 84%
22:00 +10°C° 0 mm 7 mps 765 mmHg 82%
23:00 +10°C° 0 mm 7 mps 765 mmHg 81%
Show more